Погода в Александровском

Россия / Костромская область     57°40′23″N   42°19′22″E
темп.,
°C
ветер,
м/с
пор.,
м/с
влажн.,
%
обл.,
%
осадки,
мм/ч
давл.,
гПа
погр.,
м
9 мая, вс
вс900:00+9юв41387100 0.3 1005517
03:00+10ююв51294100 1.1 1004674
06:00+10юв4995100 0.6 1004461
09:00+10ю2799100 7.1 1004415
12:00+10ю2696100 6.1 1006430
15:00+10сз2395100 8.3 1008292
18:00+6ссз61195100 2.4 1011576
21:00+5ссз61394100 4.4 1015785
10 мая, пн
пн1000:00+5с51389100 0.1 1017786
03:00+4ссз51387100 0.1 1020654
06:00+4с5128592 0.0 1022702
09:00+8с6961100 0.0 1024885
12:00+12ссв564813 0.0 10261383
15:00+14ссв34445 0.0 10261566
18:00+13ссв24565 0.0 1027356
21:00+7с22761 0.0 102933
11 мая, вт
вт1100:00+5св22816 0.0 102921
03:00+4св22865 0.0 103025
06:00+6св247951 0.0 1031123
09:00+13всв34575 0.0 1031635
12:00+17всв34425 0.0 1030971
15:00+18всв33385 0.0 10291076
18:00+17всв245716 0.0 1029111
21:00+10всв22694 0.0 103019
12 мая, ср
ср1200:00+9всв22732 0.0 103119
03:00+8всв22750 0.0 103029
06:00+10всв26750 0.0 1031164
09:00+17в35600 0.0 1029441
12:00+21в45530 0.0 10281017
15:00+23вюв474798 0.0 10272098
18:00+20в386697 0.0 1026316
21:00+16вюв3108012 0.0 1026242
13 мая, чт
чт1300:00+13юв22915 0.0 102626
03:00+12вюв239330 0.0 102652
06:00+14в398580 0.0 1026255
09:00+16вюв3107498 0.0 1025465
12:00+20юв495545 0.0 10241041
15:00+23юв594510 0.0 10231293
18:00+21юв6115533 0.0 10221077
21:00+15ююв3108656 0.1 1022246